Location: Marstown
(39.5056°N, 77.0820°W)
Time: 08:40:35
(UTC-04:00)

N. Korean satellite - Visible Passes

Search period start: 26 September 2017 00:00
Search period end: 06 October 2017 00:00
Orbit: 460 x 516 km, 97.2° (Epoch: 25 September)

Date Brightness Start Highest point End Pass type
(mag) Time Alt. Az. Time Alt. Az. Time Alt. Az.
26 Sep 9.8 20:10:14 10° SW 20:12:48 17° W 20:15:21 10° NW visible
27 Sep 8.6 19:46:04 10° SSW 19:49:28 33° W 19:52:51 10° NNW visible
28 Sep 7.0 19:22:29 10° S 19:26:12 69° W 19:29:53 10° NNW visible
30 Sep 9.8 20:10:56 10° SW 20:13:24 17° W 20:15:51 10° NW visible
01 Oct 8.7 19:46:41 10° SSW 19:50:03 32° W 19:53:22 10° NNW visible
02 Oct 7.1 19:23:05 10° S 19:26:45 67° WSW 19:30:24 10° NNW visible
04 Oct 9.8 20:11:34 10° SW 20:13:56 16° W 20:16:17 10° NW visible
05 Oct 8.7 19:47:16 10° SSW 19:50:34 31° W 19:53:50 10° NNW visible
